Scottsdale, AZ

9:55 AM MST on April 23, 2017 (GMT -0700)
Scottsdale

Weather History for KSDL - September, 2013

Change the Weather History Date:

Thursday, September 26, 2013

  Actual Average Record
Temperature  
Mean Temperature 80 °F -  
Max Temperature 91 °F 93 °F 102 °F (2010)
Min Temperature 70 °F 71 °F 64 °F (2007)
Cooling Degree Days 16    
Growing Degree Days 30 (Base 50)    
Moisture  
Dew Point 37 °F    
Average Humidity 21    
Maximum Humidity 28    
Minimum Humidity 14    
Precipitation  
Precipitation 0.00 in - - ()
Sea Level Pressure  
Sea Level Pressure 29.62 in    
Wind  
Wind Speed 6 mph (SSW)    
Max Wind Speed 14 mph    
Max Gust Speed 23 mph    
Visibility 10 miles    
Events      
Averages and records for this station are not official NWS values.
T = Trace of Precipitation, MM = Missing Value Source: NWS Daily Summary

Daily Weather History Graph

Daily Weather History Graph

Search for Another Location

Airport or City:

Trip Planner

Search our weather history database for the weather conditions in past years. The results will help you decide how hot, cold, wet, or windy it might be!

Date:

Astronomy

Sep. 26, 2013 Rise Set
Actual Time 6:18 AM MST 6:18 PM MST
Civil Twilight 5:53 AM MST 6:43 PM MST
Nautical Twilight 5:24 AM MST 7:12 PM MST
Astronomical Twilight 4:55 AM MST 7:41 PM MST
Moon 11:33 PM MST (9/26) 12:59 PM MST (9/26)
Length of Visible Light 12h 49m
Length of Day
11h 59m
Waning Gibbous, 53% of the Moon is Illuminated
Sep 26
Waning Gibbous
Sep 26
Last Quarter
Oct 4
New
Oct 11
First Quarter
Oct 18
Full

Hourly Weather History & Observations

Time (MST) Temp. Dew Point Humidity Pressure Visibility Wind Dir Wind Speed Gust Speed Precip Events Conditions
12:53 AM 77.0 °F 39.0 °F 25% 29.62 in 10.0 mi ESE 5.8 mph - N/A   Clear
1:53 AM 75.0 °F 39.9 °F 28% 29.62 in 10.0 mi ESE 4.6 mph - N/A   Clear
2:53 AM 75.0 °F 36.0 °F 24% 29.60 in 10.0 mi SE 5.8 mph - N/A   Clear
3:53 AM 73.0 °F 34.0 °F 24% 29.61 in 10.0 mi ESE 3.5 mph - N/A   Clear
4:53 AM 71.1 °F 34.0 °F 26% 29.61 in 10.0 mi Calm Calm - N/A   Clear
5:53 AM 70.0 °F 30.9 °F 24% 29.62 in 10.0 mi SE 3.5 mph - N/A   Clear
6:53 AM 72.0 °F 28.9 °F 20% 29.63 in 10.0 mi SE 3.5 mph - N/A   Clear
7:53 AM 73.9 °F 30.0 °F 20% 29.65 in 10.0 mi ESE 5.8 mph - N/A   Clear
8:53 AM 75.9 °F 30.9 °F 19% 29.66 in 10.0 mi SSE 5.8 mph - N/A   Clear
9:53 AM 81.0 °F 37.9 °F 21% 29.66 in 10.0 mi SSE 4.6 mph - N/A   Clear
10:53 AM 84.0 °F 44.1 °F 25% 29.65 in 10.0 mi South 9.2 mph - N/A   Clear
11:53 AM 86.0 °F 43.0 °F 22% 29.64 in 10.0 mi SSW 8.1 mph - N/A   Clear
12:53 PM 88.0 °F 44.1 °F 22% 29.61 in 10.0 mi Variable 5.8 mph - N/A   Clear
1:53 PM 90.0 °F 45.0 °F 21% 29.58 in 10.0 mi SW 11.5 mph - N/A   Clear
2:53 PM 91.9 °F 46.9 °F 21% 29.56 in 10.0 mi WSW 13.8 mph 21.9 mph N/A   Clear
3:53 PM 91.0 °F 48.0 °F 23% 29.56 in 10.0 mi WSW 11.5 mph 18.4 mph N/A   Partly Cloudy
4:53 PM 90.0 °F 50.0 °F 25% 29.56 in 10.0 mi West 12.7 mph 18.4 mph N/A   Scattered Clouds
5:53 PM 87.1 °F 43.0 °F 21% 29.57 in 10.0 mi WSW 11.5 mph 23.0 mph N/A   Partly Cloudy
6:53 PM 84.9 °F 39.0 °F 20% 29.58 in 10.0 mi West 12.7 mph 19.6 mph N/A   Partly Cloudy
7:53 PM 82.9 °F 28.0 °F 14% 29.60 in 10.0 mi WSW 5.8 mph - N/A   Partly Cloudy
8:53 PM 79.0 °F 28.9 °F 16% 29.63 in 10.0 mi WNW 9.2 mph 16.1 mph N/A   Overcast
9:53 PM 78.1 °F 28.9 °F 17% 29.65 in 10.0 mi West 6.9 mph - N/A   Scattered Clouds
10:53 PM 75.9 °F 28.9 °F 18% 29.68 in 10.0 mi Calm Calm - N/A   Mostly Cloudy
11:53 PM 75.0 °F 28.0 °F 18% 29.69 in 10.0 mi SW 4.6 mph - N/A   Overcast